Hourly Data Report for September 07, 2017

All times are specified in Local Standard Time (LST). Add 1 hour to adjust for Daylight Saving Time where and when it is observed.

CAPE DORSET A
NUNAVUT

64°13'49.000" N
76°31'30.000" W
48.20 m
2400637
71366
YTE

Download Data

Hourly Data (September 2017)
Hourly Data Report for September 7, 2017
Temp Definition
°C
Dew Point Temp Definition
°C
Rel Hum Definition
%
Wind Dir Definition
10's deg

Wind Spd Definition
km/h
Visibility Definition
km
Stn Press Definition
kPa
Hmdx Definition


Wind Chill Definition


Weather Definition


TIME
00:00 Legend Double Dagger 0.5 -2.2 82 1 11 16.1 101.11     LegendNANA
01:00 Legend Double Dagger 0.2 -2.5 82 1 17 16.1 101.14     LegendNANA
02:00 Legend Double Dagger 0.0 -2.9 81 1 13 16.1 101.18   -4 LegendNANA
03:00 Legend Double Dagger 0.1 -3.3 78 36 17 16.1 101.19     LegendNANA
04:00 Legend Double Dagger 0.1 -3.3 78 1 15 16.1 101.20     LegendNANA
05:00 Legend Double Dagger 0.0 -3.7 77 5 13 16.1 101.23   -4 LegendNANA
06:00 Legend Double Dagger -0.1 -4.1 75 5 11 16.1 101.26   -4 LegendNANA
07:00 Legend Double Dagger 0.2 -4.0 73 6 13 16.1 101.30     LegendNANA
08:00 Legend Double Dagger 0.9 -3.4 73 9 5 16.1 101.30     LegendNANA
09:00 Legend Double Dagger 0.6 -3.7 73 36 9 16.1 101.31     LegendNANA
10:00 Legend Double Dagger 0.7 -4.1 70 3 11 16.1 101.29     LegendNANA
11:00 Legend Double Dagger 0.7 -4.4 69 29 5 16.1 101.28     LegendNANA
12:00 Legend Double Dagger 0.9 -4.2 69 35 8 16.1 101.27     LegendNANA
13:00 Legend Double Dagger 1.4 -4.5 65   0 16.1 101.25     LegendNANA
14:00 Legend Double Dagger 1.3 -3.6 70 LegendMM 9 16.1 101.24     LegendNANA
15:00 Legend Double Dagger 1.6 -3.4 69 11 11 16.1 101.20     LegendNANA
16:00 Legend Double Dagger 1.5 -3.8 68 19 15 16.1 101.20     LegendNANA
17:00 Legend Double Dagger 0.8 -3.9 71 24 13 16.1 101.16     LegendNANA
18:00 Legend Double Dagger 0.2 -4.0 73 23 9 16.1 101.12     LegendNANA
19:00 Legend Double Dagger 0.0 -4.1 74 25 9 16.1 101.08   -3 LegendNANA
20:00 Legend Double Dagger -0.1 -4.0 75 25 9 16.1 101.05   -3 LegendNANA
21:00 Legend Double Dagger -0.1 -4.0 75 26 15 16.1 101.01   -5 LegendNANA
22:00 Legend Double Dagger -0.3 -4.2 75 24 11 16.1 100.94   -4 LegendNANA
23:00 Legend Double Dagger -0.3 -3.8 77 27 15 16.1 100.91   -5 LegendNANA

Notes on Data Quality.

Legend

  • E = Estimated
  • M = Missing
  • NA = Not Available
  • ‡ = Partner data that is not subject to review by the National Climate Archives
Date modified: